Regional Weather Roundup
Issued by NWS

Home | Current Version | Previous Version | Text Only | Print | Product List | Glossary On
Versions: 1 2 3 4 5 6 7 8 9 10 11 12 13 14 15 16 17 18 19 20 21 22 23 24 25 26 27 28 29 30 31 32 33 34 35 36 37 38 39 40 41 42 43 44 45 46 47 48 49 50
187
ASUS44 KLIX 311111
RWRLA
LOUISIANA WEATHER ROUNDUP
NATIONAL WEATHER SERVICE NEW ORLEANS LA
600 AM CDT TUE MAR 31 2015

NOTE: "FAIR" INDICATES FEW OR NO CLOUDS BELOW 12,000 FEET WITH NO
      SIGNIFICANT WEATHER AND/OR OBSTRUCTIONS TO VISIBILITY.
      SKY/WX - SKY CONDITION AND SIGNIFICANT WEATHER.
      TMP - AIR TEMPERATURE.    DP   - DEWPOINT TEMPERATURE.
      RH  - RELATIVE HUMIDITY.  PRES - PRESSURE.
      HX  - HEAT INDEX.         WCI  - WIND CHILL INDEX.

*  THESE STATIONS ARE NOT NWS OR FAA STATIONS AND ARE NOT UNDER
   NWS QUALITY CONTROL.

LAZ040-048-061>063-065-066-069-311200-
SOUTHEAST LOUISIANA

CITY           SKY/WX    TMP DP  RH WIND       PRES   REMARKS
N.O. AUDUBON   NOT AVBL
N.O. INTL ARPT PTCLDY    63  60  90 CALM      30.10S
N.O. LAKEFRONT CLEAR     67  63  87 SW5       30.10S
SLIDELL        CLEAR     58  57  97 CALM      30.09S
BATON ROUGE    CLEAR     60  59  96 CALM      30.09R
BOOTHVILLE     CLEAR     68  65  90 S5        30.12R
BELLE CHASSE   FOG       59  58  96 CALM      30.10S VSB 1/4
BOGALUSA*        N/A     61  58  90 CALM      30.10S
GALLIANO*      FOG       55  54  99 CALM      30.11R VSB<1/4
NEW ROADS*     FAIR      62  61  97 S6        30.09R
GONZALES*      FAIR      58  58 100 CALM      30.09S FOG
HAMMOND*       CLEAR     59  57  94 CALM      30.11S
HOUMA*         FOG       58  58 100 CALM      30.10S VSB 1/2
PORT FOURCHON* MOSUNNY   70  66  88 CALM      30.14R

$$

LAZ041-044-053-054-311200-
SOUTHWEST LOUISIANA

CITY           SKY/WX    TMP DP  RH WIND       PRES   REMARKS
LAKE CHARLES   FOG       59  58  96 CALM      30.08R VSB 1
LAFAYETTE      PTCLDY    61  60  97 CALM      30.09R FOG
PATTERSON      PTCLDY    57  55  94 CALM      30.11R
SALT POINT       N/A     64  63  96 SE3       30.08S
NEW IBERIA     FOG       58  57  97 SE5       30.10R VSB 1/4
CHENAULT AIRPK FOG       59  59 100 CALM      30.09R VSB 1/2

$$

LAZ027-028-311200-
CENTRAL LOUISIANA

CITY           SKY/WX    TMP DP  RH WIND       PRES   REMARKS
FORT POLK      CLOUDY    64  63  95 S8        30.06S
ALEXANDRIA INT CLOUDY    64  62  93 S8        30.05S
ALEXANDRIA     CLOUDY    63  61  93 SW8       30.07R

$$

LAZ001-002-311200-
NORTHWEST LOUISIANA

CITY           SKY/WX    TMP DP  RH WIND       PRES   REMARKS
SHREVEPORT     CLOUDY    64  61  90 SW9       30.03R
BARKSDALE AFB  MOCLDY    63  62  94 SW5       30.04R
DTN SHREVEPORT PTCLDY    63  60  90 SW8       30.04R

$$

LAZ014-016-311200-
NORTHEAST LOUISIANA

CITY           SKY/WX    TMP DP  RH WIND       PRES   REMARKS
MONROE         MOCLDY    61  60  97 SW6       30.05R
TALLULAH       CLEAR     59  57  93 S3        30.06R

$$




USA.gov is the U.S. government's official web portal to all federal, state and local government web resources and services.